Location: Fort Worth, Tx
(32.7431°N, 97.3695°W)
Time: 01:22:56
(UTC-04:00)

Vanguard 2 - Pass Details

Date: 25 February 2024
Orbit: 552 x 2916 km, 32.9° (Epoch: 24 April)

Event Time Altitude Azimuth Distance (km) Brightness Sun altitude
Exits shadow 05:26:29 15° 200° (SSW) 4,693 11.2 -33.4°
Drops below altitude 10° 05:29:38 10° 187° (S) 4,920 11.4 -32.8°
Sets 05:34:36 0° 171° (S) 5,533 11.9 -31.8°
